Cumberland, WI

3:55 AM CDT on April 28, 2017 (GMT -0500)
Cumberland Municipal

Weather History for KUBE - August, 2014

Change the Weather History Date:

Wednesday, August 27, 2014

  Actual Average (KRPD) Record (KRPD)
Temperature  
Mean Temperature 60 °F -  
Max Temperature 69 °F 75 °F 87 °F (1999)
Min Temperature 51 °F 54 °F 45 °F (2015)
Degree Days  
Heating Degree Days 5    
Growing Degree Days 10 (Base 50)    
Moisture  
Dew Point 52 °F    
Average Humidity 77    
Maximum Humidity 100    
Minimum Humidity 52    
Precipitation  
Precipitation 0.03 in - - ()
Sea Level Pressure  
Sea Level Pressure 30.20 in    
Wind  
Wind Speed 2 mph (North)    
Max Wind Speed 7 mph    
Max Gust Speed -    
Visibility 10 miles    
Events Rain    
Averages and records for this station are not official NWS values.
T = Trace of Precipitation, MM = Missing Value Source: NWS Daily Summary

Daily Weather History Graph

Daily Weather History Graph

Search for Another Location

Airport or City:

Trip Planner

Search our weather history database for the weather conditions in past years. The results will help you decide how hot, cold, wet, or windy it might be!

Date:

Astronomy

Aug. 27, 2014 Rise Set
Actual Time 6:23 AM CDT 7:54 PM CDT
Civil Twilight 5:52 AM CDT 8:25 PM CDT
Nautical Twilight 5:14 AM CDT 9:03 PM CDT
Astronomical Twilight 4:33 AM CDT 9:43 PM CDT
Moon 8:27 AM CDT (8/27) 8:37 PM CDT (8/27)
Length of Visible Light 14h 33m
Length of Day
13h 31m
Waxing Crescent, 4% of the Moon is Illuminated
Aug 27
Waxing Crescent
Sep 2
First Quarter
Sep 8
Full
Sep 15
Last Quarter
Sep 24
New

Hourly Weather History & Observations

Time (CDT) Temp. Dew Point Humidity Pressure Visibility Wind Dir Wind Speed Gust Speed Precip Events Conditions
12:15 AM 59.0 °F 55.4 °F 88% 30.20 in 10.0 mi NW 4.6 mph - N/A Rain Rain
12:35 AM 59.0 °F 55.4 °F 88% 30.20 in 10.0 mi NNW 3.5 mph - 0.02 in Rain Light Rain
12:55 AM 57.2 °F 55.4 °F 94% 30.21 in 10.0 mi North 3.5 mph - 0.02 in Rain Light Rain
1:15 AM 57.2 °F 55.4 °F 94% 30.21 in 10.0 mi Calm Calm - N/A   Light Drizzle
1:35 AM 57.2 °F 55.4 °F 94% 30.21 in 10.0 mi North 3.5 mph - N/A   Overcast
1:55 AM 57.2 °F 53.6 °F 88% 30.20 in 10.0 mi NNE 3.5 mph - N/A   Overcast
2:15 AM 57.2 °F 53.6 °F 88% 30.20 in 10.0 mi Calm Calm - N/A   Overcast
2:35 AM 55.4 °F 53.6 °F 94% 30.20 in 10.0 mi North 3.5 mph - N/A   Overcast
2:55 AM 55.4 °F 53.6 °F 94% 30.21 in 10.0 mi NNW 3.5 mph - N/A   Overcast
3:15 AM 55.4 °F 53.6 °F 94% 30.20 in 10.0 mi Calm Calm - 0.01 in Rain Light Rain
3:35 AM 55.4 °F 53.6 °F 94% 30.20 in 10.0 mi NNW 4.6 mph - 0.01 in Rain Light Rain
3:55 AM 55.4 °F 53.6 °F 94% 30.20 in 10.0 mi NNW 4.6 mph - 0.01 in   Light Drizzle
4:15 AM 55.4 °F 53.6 °F 94% 30.20 in 10.0 mi NNW 3.5 mph - N/A   Overcast
4:35 AM 55.4 °F 53.6 °F 94% 30.20 in 10.0 mi North 3.5 mph - N/A   Overcast
4:55 AM 55.4 °F 53.6 °F 94% 30.20 in 10.0 mi North 3.5 mph - N/A   Mostly Cloudy
5:15 AM 55.4 °F 53.6 °F 94% 30.20 in 10.0 mi Calm Calm - N/A   Overcast
5:35 AM 53.6 °F 51.8 °F 94% 30.20 in 10.0 mi Calm Calm - N/A   Overcast
5:55 AM 53.6 °F 51.8 °F 94% 30.21 in 10.0 mi Calm Calm - N/A   Mostly Cloudy
6:15 AM 53.6 °F 51.8 °F 94% 30.20 in 10.0 mi NNE 3.5 mph - N/A   Mostly Cloudy
6:35 AM 51.8 °F 51.8 °F 100% 30.21 in 10.0 mi Calm Calm - N/A   Scattered Clouds
6:55 AM 51.8 °F 51.8 °F 100% 30.21 in 10.0 mi Calm Calm - N/A   Clear
7:15 AM 53.6 °F 51.8 °F 94% 30.22 in 10.0 mi Calm Calm - N/A   Clear
7:35 AM 55.4 °F 51.8 °F 88% 30.22 in 10.0 mi Calm Calm - N/A   Scattered Clouds
7:55 AM 55.4 °F 51.8 °F 88% 30.22 in 10.0 mi NE 3.5 mph - N/A   Scattered Clouds
8:15 AM 57.2 °F 51.8 °F 82% 30.22 in 10.0 mi Calm Calm - N/A   Clear
8:35 AM 59.0 °F 50.0 °F 72% 30.23 in 10.0 mi Calm Calm - N/A   Clear
8:55 AM 59.0 °F 50.0 °F 72% 30.23 in 10.0 mi NE 3.5 mph - N/A   Clear
9:15 AM 60.8 °F 50.0 °F 68% 30.23 in 10.0 mi NNE 4.6 mph - N/A   Clear
9:35 AM 60.8 °F 48.2 °F 63% 30.23 in 10.0 mi Calm Calm - N/A   Clear
9:55 AM 60.8 °F 50.0 °F 68% 30.23 in 10.0 mi NE 5.8 mph - N/A   Clear
10:15 AM 62.6 °F 50.0 °F 63% 30.23 in 10.0 mi ENE 6.9 mph - N/A   Clear
10:35 AM 62.6 °F 50.0 °F 63% 30.23 in 10.0 mi NE 5.8 mph - N/A   Clear
10:55 AM 62.6 °F 50.0 °F 63% 30.24 in 10.0 mi NE 6.9 mph - N/A   Clear
11:15 AM 60.8 °F 48.2 °F 63% 30.25 in 10.0 mi Calm Calm - N/A   Clear
11:35 AM 62.6 °F 46.4 °F 55% 30.25 in 10.0 mi Calm Calm - N/A   Clear
11:55 AM 62.6 °F 50.0 °F 63% 30.25 in 10.0 mi Calm Calm - N/A   Scattered Clouds
12:15 PM 64.4 °F 50.0 °F 59% 30.24 in 10.0 mi NNE 3.5 mph - N/A   Mostly Cloudy
12:35 PM 62.6 °F 46.4 °F 55% 30.24 in 10.0 mi Calm Calm - N/A   Scattered Clouds
12:55 PM 64.4 °F 46.4 °F 52% 30.23 in 10.0 mi Calm Calm - N/A   Scattered Clouds
1:15 PM 68.0 °F 50.0 °F 52% 30.23 in 10.0 mi NE 5.8 mph - N/A   Mostly Cloudy
1:35 PM 66.2 °F 50.0 °F 56% 30.23 in 10.0 mi Calm Calm - N/A   Mostly Cloudy
1:55 PM 68.0 °F 50.0 °F 52% 30.22 in 10.0 mi Calm Calm - N/A   Overcast
2:15 PM 66.2 °F 50.0 °F 56% 30.22 in 10.0 mi Calm Calm - N/A   Overcast
2:35 PM 68.0 °F 50.0 °F 52% 30.21 in 10.0 mi NW 3.5 mph - N/A   Mostly Cloudy
2:55 PM 68.0 °F 51.8 °F 56% 30.20 in 10.0 mi Calm Calm - N/A   Scattered Clouds
3:15 PM 68.0 °F 50.0 °F 52% 30.20 in 10.0 mi NNW 3.5 mph - N/A   Mostly Cloudy
3:35 PM 68.0 °F 51.8 °F 56% 30.19 in 10.0 mi West 3.5 mph - N/A   Scattered Clouds
3:55 PM 68.0 °F 51.8 °F 56% 30.19 in 10.0 mi NNW 4.6 mph - N/A   Scattered Clouds
4:15 PM 69.8 °F 51.8 °F 53% 30.18 in 10.0 mi North 6.9 mph - N/A   Scattered Clouds
4:35 PM 69.8 °F 51.8 °F 53% 30.17 in 10.0 mi Calm Calm - N/A   Clear
4:55 PM 69.8 °F 51.8 °F 53% 30.17 in 10.0 mi North 3.5 mph - N/A   Scattered Clouds
5:15 PM 68.0 °F 51.8 °F 56% 30.16 in 10.0 mi NNE 4.6 mph - N/A   Clear
5:35 PM 68.0 °F 51.8 °F 56% 30.16 in 10.0 mi North 4.6 mph - N/A   Clear
5:55 PM 68.0 °F 51.8 °F 56% 30.16 in 10.0 mi Calm Calm - N/A   Clear
6:15 PM 68.0 °F 51.8 °F 56% 30.16 in 10.0 mi Calm Calm - N/A   Clear
6:35 PM 68.0 °F 53.6 °F 60% 30.16 in 10.0 mi NNW 3.5 mph - N/A   Scattered Clouds
6:55 PM 64.4 °F 53.6 °F 68% 30.15 in 10.0 mi North 3.5 mph - N/A   Scattered Clouds
7:15 PM 64.4 °F 53.6 °F 68% 30.15 in 10.0 mi Calm Calm - N/A   Clear
7:35 PM 64.4 °F 53.6 °F 68% 30.15 in 10.0 mi North 3.5 mph - N/A   Clear
7:55 PM 62.6 °F 53.6 °F 72% 30.15 in 10.0 mi Calm Calm - N/A   Clear
8:15 PM 60.8 °F 55.4 °F 82% 30.15 in 10.0 mi Calm Calm - N/A   Clear
8:35 PM 59.0 °F 55.4 °F 88% 30.15 in 10.0 mi Calm Calm - N/A   Clear
8:55 PM 57.2 °F 55.4 °F 94% 30.15 in 10.0 mi Calm Calm - N/A   Clear
9:15 PM 55.4 °F 53.6 °F 94% 30.16 in 10.0 mi Calm Calm - N/A   Clear
9:35 PM 55.4 °F 53.6 °F 94% 30.16 in 10.0 mi Calm Calm - N/A   Clear
9:55 PM 55.4 °F 53.6 °F 94% 30.16 in 10.0 mi Calm Calm - N/A   Clear
10:15 PM 55.4 °F 53.6 °F 94% 30.16 in 10.0 mi Calm Calm - N/A   Clear
10:35 PM 53.6 °F 51.8 °F 94% 30.16 in 10.0 mi Calm Calm - N/A   Clear
10:55 PM 55.4 °F 53.6 °F 94% 30.17 in 10.0 mi Calm Calm - N/A   Clear
11:15 PM 51.8 °F 51.8 °F 100% 30.17 in 10.0 mi Calm Calm - N/A   Clear
11:35 PM 51.8 °F 51.8 °F 100% 30.17 in 10.0 mi Calm Calm - N/A   Clear
11:55 PM 53.6 °F 51.8 °F 94% 30.17 in 10.0 mi Calm Calm - N/A   Clear